CPA873 EDDF-EDDM

Flight info

Callsign CPA873
Flight time 0h 36m
Altitude 23000
Route CINDY8S/18 CINDY Z74 HAREM T104 ROKIL ROKIL1A
Aircraft B77W/H-SDE1E2E3FGHIJ2J3J4J5M1RWXY/LB1D1

Departure

Time 2026-04-17 22:02
Airport Frankfurt Main Airport (EDDF)

Arrival

Time 2026-04-17 22:38
Airport Munich Airport (EDDM)
Time Latitude Longitude Altitude Speed Heading
2026-04-17 21:19 50.04766 8.56501 350 ft 0 kts 340°
2026-04-17 21:48 50.04764 8.56502 350 ft 1 kts 341°
2026-04-17 21:48 50.04747 8.56509 360 ft 3 kts 358°
2026-04-17 21:48 50.04728 8.56507 360 ft 3 kts 18°
2026-04-17 21:49 50.04710 8.56495 360 ft 3 kts 34°
2026-04-17 21:49 50.04694 8.56475 360 ft 3 kts 46°
2026-04-17 21:49 50.04681 8.56452 360 ft 3 kts 53°
2026-04-17 21:49 50.04669 8.56426 360 ft 3 kts 59°
2026-04-17 21:50 50.04659 8.56399 360 ft 3 kts 63°
2026-04-17 21:50 50.04650 8.56371 360 ft 3 kts 65°
2026-04-17 21:50 50.04642 8.56342 360 ft 3 kts 66°
2026-04-17 21:50 50.04633 8.56313 360 ft 3 kts 62°
2026-04-17 21:51 50.04623 8.56288 360 ft 3 kts 40°
2026-04-17 21:51 50.04613 8.56277 360 ft 1 kts 344°
2026-04-17 21:51 50.04602 8.56283 360 ft 3 kts 331°
2026-04-17 21:51 50.04590 8.56295 360 ft 2 kts 299°
2026-04-17 21:52 50.04591 8.56292 360 ft 1 kts 299°
2026-04-17 21:52 50.04596 8.56278 360 ft 2 kts 299°
2026-04-17 21:52 50.04605 8.56253 359 ft 3 kts 299°
2026-04-17 21:52 50.04618 8.56217 354 ft 4 kts 295°
2026-04-17 21:53 50.04619 8.56210 358 ft 0 kts 288°
2026-04-17 21:53 50.04619 8.56209 358 ft 0 kts 287°
2026-04-17 21:53 50.04619 8.56208 358 ft 0 kts 286°
2026-04-17 21:54 50.04619 8.56206 350 ft 1 kts 284°
2026-04-17 21:54 50.04620 8.56194 350 ft 6 kts 276°
2026-04-17 21:54 50.04586 8.56082 359 ft 14 kts 238°
2026-04-17 21:54 50.04535 8.55962 360 ft 13 kts 226°
2026-04-17 21:55 50.04459 8.55902 356 ft 3 kts 193°
2026-04-17 21:55 50.04412 8.55901 355 ft 13 kts 171°
2026-04-17 21:55 50.04342 8.55931 356 ft 14 kts 162°
2026-04-17 21:55 50.04299 8.55951 356 ft 7 kts 168°
2026-04-17 21:56 50.04235 8.55904 360 ft 14 kts 231°
2026-04-17 21:56 50.04193 8.55739 358 ft 19 kts 250°
2026-04-17 21:56 50.04144 8.55529 358 ft 19 kts 249°
2026-04-17 21:56 50.04096 8.55340 360 ft 15 kts 250°
2026-04-17 21:57 50.04068 8.55218 358 ft 8 kts 249°
2026-04-17 21:57 50.04047 8.55136 355 ft 9 kts 249°
2026-04-17 21:57 50.04024 8.55042 357 ft 10 kts 250°
2026-04-17 21:57 50.03993 8.54932 357 ft 12 kts 249°
2026-04-17 21:58 50.03964 8.54788 359 ft 15 kts 252°
2026-04-17 21:58 50.03924 8.54616 356 ft 18 kts 248°
2026-04-17 21:58 50.03880 8.54443 358 ft 11 kts 248°
2026-04-17 21:58 50.03851 8.54350 356 ft 11 kts 240°
2026-04-17 21:59 50.03813 8.54231 356 ft 14 kts 245°
2026-04-17 21:59 50.03764 8.54082 360 ft 17 kts 238°
2026-04-17 21:59 50.03720 8.53898 359 ft 20 kts 253°
2026-04-17 21:59 50.03686 8.53719 357 ft 18 kts 257°
2026-04-17 22:00 50.03645 8.53520 358 ft 20 kts 250°
2026-04-17 22:00 50.03577 8.53319 360 ft 22 kts 237°
2026-04-17 22:00 50.03525 8.53086 355 ft 24 kts 250°
2026-04-17 22:00 50.03475 8.52880 360 ft 20 kts 246°
2026-04-17 22:01 50.03432 8.52715 358 ft 14 kts 246°
2026-04-17 22:01 50.03404 8.52633 360 ft 14 kts 226°
2026-04-17 22:01 50.03177 8.52594 354 ft 64 kts 180°
2026-04-17 22:01 50.02391 8.52606 353 ft 158 kts 179°
2026-04-17 22:02 50.01120 8.52630 862 ft 188 kts 180°
2026-04-17 22:02 49.99838 8.52577 1961 ft 185 kts 183°
2026-04-17 22:02 49.98493 8.52508 2530 ft 201 kts 173°
2026-04-17 22:02 49.97081 8.53314 2722 ft 242 kts 147°
2026-04-17 22:03 49.95669 8.54944 2693 ft 259 kts 133°
2026-04-17 22:03 49.94727 8.57289 2720 ft 257 kts 116°
2026-04-17 22:03 49.94016 8.59850 2692 ft 261 kts 102°
2026-04-17 22:03 49.93908 8.62654 2712 ft 262 kts 90°
2026-04-17 22:04 49.93847 8.65508 3229 ft 266 kts 92°
2026-04-17 22:04 49.93649 8.68342 4427 ft 265 kts 108°
2026-04-17 22:04 49.92658 8.70732 5592 ft 267 kts 140°
2026-04-17 22:04 49.91172 8.72441 6722 ft 269 kts 146°
2026-04-17 22:05 49.89632 8.74125 7830 ft 273 kts 146°
2026-04-17 22:05 49.88192 8.76050 8859 ft 279 kts 128°
2026-04-17 22:05 49.87214 8.78673 9867 ft 284 kts 119°
2026-04-17 22:05 49.86269 8.81411 10802 ft 294 kts 120°
2026-04-17 22:06 49.85239 8.84309 11278 ft 323 kts 120°
2026-04-17 22:06 49.84086 8.87503 11536 ft 357 kts 120°
2026-04-17 22:06 49.82816 8.91000 11843 ft 387 kts 120°
2026-04-17 22:06 49.81472 8.94702 12673 ft 400 kts 120°
2026-04-17 22:07 49.80091 8.98504 13622 ft 411 kts 120°
2026-04-17 22:07 49.78679 9.02386 14546 ft 420 kts 120°
2026-04-17 22:07 49.77228 9.06363 15544 ft 425 kts 120°
2026-04-17 22:07 49.75871 9.10447 16492 ft 429 kts 112°
2026-04-17 22:08 49.75069 9.14944 17302 ft 438 kts 102°
2026-04-17 22:08 49.74215 9.19488 17975 ft 445 kts 115°
2026-04-17 22:08 49.72492 9.23452 18763 ft 450 kts 133°
2026-04-17 22:08 49.70315 9.26955 19656 ft 452 kts 135°
2026-04-17 22:09 49.68119 9.30488 20451 ft 458 kts 134°
2026-04-17 22:09 49.65982 9.34099 21169 ft 465 kts 132°
2026-04-17 22:09 49.63838 9.37862 21884 ft 471 kts 131°
2026-04-17 22:09 49.61672 9.41702 22588 ft 477 kts 131°
2026-04-17 22:10 49.59484 9.45572 23232 ft 480 kts 131°
2026-04-17 22:10 49.57283 9.49445 23188 ft 479 kts 131°
2026-04-17 22:10 49.55095 9.53284 23196 ft 476 kts 131°
2026-04-17 22:10 49.52907 9.57115 23197 ft 476 kts 131°
2026-04-17 22:11 49.50718 9.60944 23204 ft 477 kts 131°
2026-04-17 22:11 49.48526 9.64773 23207 ft 478 kts 131°
2026-04-17 22:11 49.46326 9.68612 23206 ft 478 kts 131°
2026-04-17 22:11 49.44131 9.72439 23212 ft 478 kts 131°
2026-04-17 22:12 49.41930 9.76270 23208 ft 478 kts 131°
2026-04-17 22:12 49.39729 9.80097 23214 ft 478 kts 132°
2026-04-17 22:12 49.37525 9.83918 23214 ft 477 kts 132°
2026-04-17 22:12 49.35322 9.87724 23215 ft 478 kts 131°
2026-04-17 22:13 49.33114 9.91529 23214 ft 478 kts 132°
2026-04-17 22:13 49.30907 9.95328 23206 ft 477 kts 131°
2026-04-17 22:13 49.28701 9.99123 23209 ft 477 kts 131°
2026-04-17 22:13 49.26563 10.02797 23208 ft 477 kts 132°
2026-04-17 22:14 49.24350 10.06595 23211 ft 477 kts 132°
2026-04-17 22:14 49.22141 10.10383 23208 ft 477 kts 132°
2026-04-17 22:14 49.19932 10.14163 23209 ft 477 kts 132°
2026-04-17 22:14 49.17724 10.17938 23215 ft 477 kts 132°
2026-04-17 22:15 49.15511 10.21718 23216 ft 477 kts 132°
2026-04-17 22:15 49.13289 10.25487 23213 ft 478 kts 133°
2026-04-17 22:15 49.11020 10.29182 23216 ft 478 kts 134°
2026-04-17 22:15 49.08718 10.32847 23225 ft 478 kts 134°
2026-04-17 22:16 49.06408 10.36515 23222 ft 479 kts 134°
2026-04-17 22:16 49.04112 10.40180 23211 ft 479 kts 134°
2026-04-17 22:16 49.01831 10.43836 23213 ft 470 kts 133°
2026-04-17 22:16 48.99626 10.47370 22554 ft 469 kts 134°
2026-04-17 22:17 48.97348 10.51006 21906 ft 464 kts 134°
2026-04-17 22:17 48.95129 10.54538 21187 ft 459 kts 134°
2026-04-17 22:17 48.92962 10.57984 20485 ft 442 kts 134°
2026-04-17 22:17 48.90846 10.61346 19843 ft 438 kts 134°
2026-04-17 22:18 48.88752 10.64671 19221 ft 435 kts 134°
2026-04-17 22:18 48.86666 10.67980 18590 ft 432 kts 134°
2026-04-17 22:18 48.84609 10.71242 17869 ft 421 kts 134°
2026-04-17 22:18 48.82625 10.74382 17224 ft 404 kts 134°
2026-04-17 22:19 48.80716 10.77397 16640 ft 388 kts 134°
2026-04-17 22:19 48.78872 10.80297 16071 ft 376 kts 134°
2026-04-17 22:19 48.77071 10.83122 15531 ft 374 kts 134°
2026-04-17 22:19 48.75233 10.86002 14992 ft 387 kts 134°
2026-04-17 22:20 48.73333 10.88981 14414 ft 399 kts 134°
2026-04-17 22:20 48.71396 10.92012 13769 ft 401 kts 134°
2026-04-17 22:20 48.69460 10.95040 13113 ft 399 kts 134°
2026-04-17 22:20 48.67532 10.98046 12502 ft 396 kts 134°
2026-04-17 22:21 48.65688 11.00914 11994 ft 390 kts 134°
2026-04-17 22:21 48.63811 11.03831 11403 ft 387 kts 134°
2026-04-17 22:21 48.61975 11.06683 11078 ft 377 kts 134°
2026-04-17 22:21 48.60220 11.09404 10873 ft 344 kts 134°
2026-04-17 22:22 48.58635 11.11860 10704 ft 310 kts 134°
2026-04-17 22:22 48.57099 11.13918 10561 ft 282 kts 144°
2026-04-17 22:22 48.55548 11.15505 10461 ft 257 kts 147°
2026-04-17 22:22 48.54045 11.16984 10395 ft 270 kts 146°
2026-04-17 22:23 48.52392 11.18628 10321 ft 297 kts 146°
2026-04-17 22:23 48.51238 11.19791 10231 ft 300 kts 145°
2026-04-17 22:23 48.49126 11.22464 10084 ft 291 kts 137°
2026-04-17 22:23 48.47674 11.24517 9953 ft 282 kts 137°
2026-04-17 22:24 48.46229 11.26524 9858 ft 283 kts 137°
2026-04-17 22:24 48.44771 11.28511 9773 ft 283 kts 137°
2026-04-17 22:24 48.43803 11.29819 9688 ft 282 kts 138°
2026-04-17 22:24 48.42404 11.31850 9572 ft 276 kts 126°
2026-04-17 22:25 48.41655 11.34456 9513 ft 271 kts 98°
2026-04-17 22:25 48.41643 11.37286 9462 ft 274 kts 83°
2026-04-17 22:25 48.41868 11.40172 9365 ft 279 kts 82°
2026-04-17 22:25 48.42112 11.43065 9264 ft 278 kts 82°
2026-04-17 22:26 48.42356 11.45942 9156 ft 276 kts 82°
2026-04-17 22:26 48.42595 11.48801 9070 ft 275 kts 82°
2026-04-17 22:26 48.42829 11.51645 8976 ft 273 kts 82°
2026-04-17 22:26 48.43060 11.54477 8880 ft 270 kts 82°
2026-04-17 22:27 48.43282 11.57244 8785 ft 261 kts 82°
2026-04-17 22:27 48.43493 11.59898 8694 ft 251 kts 82°
2026-04-17 22:27 48.43698 11.62495 8613 ft 251 kts 82°
2026-04-17 22:27 48.43903 11.65107 8557 ft 251 kts 83°
2026-04-17 22:28 48.44106 11.67704 8433 ft 249 kts 83°
2026-04-17 22:28 48.44307 11.70281 8197 ft 246 kts 82°
2026-04-17 22:28 48.44507 11.72832 7929 ft 244 kts 83°
2026-04-17 22:28 48.44704 11.75362 7654 ft 243 kts 83°
2026-04-17 22:29 48.44898 11.77878 7373 ft 241 kts 83°
2026-04-17 22:29 48.45090 11.80384 7098 ft 240 kts 83°
2026-04-17 22:29 48.45281 11.82872 6830 ft 239 kts 83°
2026-04-17 22:29 48.45469 11.85343 6570 ft 237 kts 83°
2026-04-17 22:30 48.45656 11.87808 6291 ft 236 kts 83°
2026-04-17 22:30 48.45841 11.90256 6010 ft 235 kts 83°
2026-04-17 22:30 48.46025 11.92689 5720 ft 234 kts 83°
2026-04-17 22:30 48.46208 11.95121 5452 ft 233 kts 84°
2026-04-17 22:31 48.46388 11.97523 5284 ft 227 kts 84°
2026-04-17 22:31 48.46563 11.99857 5232 ft 225 kts 84°
2026-04-17 22:31 48.46735 12.02156 5222 ft 230 kts 84°
2026-04-17 22:31 48.46915 12.04568 5218 ft 233 kts 84°
2026-04-17 22:32 48.47094 12.06991 5230 ft 232 kts 84°
2026-04-17 22:32 48.47262 12.09403 5194 ft 230 kts 88°
2026-04-17 22:32 48.46924 12.11741 5076 ft 232 kts 120°
2026-04-17 22:32 48.45790 12.13431 5037 ft 233 kts 152°
2026-04-17 22:33 48.44231 12.14054 5014 ft 233 kts 170°
2026-04-17 22:33 48.42727 12.14882 4993 ft 231 kts 144°
2026-04-17 22:33 48.41322 12.16040 4981 ft 235 kts 165°
2026-04-17 22:33 48.39679 12.15973 4999 ft 243 kts 198°
2026-04-17 22:34 48.38302 12.14563 4988 ft 243 kts 231°
2026-04-17 22:34 48.37650 12.12264 4991 ft 241 kts 265°
2026-04-17 22:34 48.37847 12.09783 5008 ft 239 kts 284°
2026-04-17 22:34 48.38150 12.07268 4738 ft 251 kts 277°
2026-04-17 22:35 48.38239 12.04677 4416 ft 253 kts 271°
2026-04-17 22:35 48.38198 12.01980 4077 ft 254 kts 266°
2026-04-17 22:35 48.38021 11.99367 3750 ft 246 kts 263°
2026-04-17 22:35 48.37819 11.96885 3445 ft 231 kts 263°
2026-04-17 22:36 48.37641 11.94590 3152 ft 209 kts 263°
2026-04-17 22:36 48.37486 11.92555 2867 ft 183 kts 263°
2026-04-17 22:36 48.37353 11.90804 2618 ft 162 kts 263°
2026-04-17 22:36 48.37226 11.89145 2421 ft 156 kts 263°
2026-04-17 22:37 48.37103 11.87548 2204 ft 152 kts 264°
2026-04-17 22:37 48.36984 11.86013 2010 ft 148 kts 264°
2026-04-17 22:37 48.36865 11.84470 1816 ft 149 kts 264°
2026-04-17 22:37 48.36749 11.82909 1612 ft 147 kts 263°
2026-04-17 22:38 48.36634 11.81404 1469 ft 140 kts 264°
2026-04-17 22:38 48.36532 11.80106 1466 ft 102 kts 263°
2026-04-17 22:38 48.36471 11.79287 1475 ft 45 kts 263°
2026-04-17 22:38 48.36387 11.78879 1462 ft 38 kts 234°
2026-04-17 22:39 48.36231 11.78570 1459 ft 36 kts 229°
2026-04-17 22:39 48.36106 11.78470 1465 ft 16 kts 171°
2026-04-17 22:39 48.36026 11.78423 1466 ft 5 kts 255°
2026-04-17 22:40 48.36019 11.78364 1462 ft 6 kts 262°
2026-04-17 22:40 48.36013 11.78294 1472 ft 8 kts 263°
2026-04-17 22:40 48.36008 11.78196 1472 ft 11 kts 263°
2026-04-17 22:40 48.35996 11.78074 1468 ft 9 kts 262°
2026-04-17 22:41 48.35988 11.77981 1464 ft 10 kts 263°
2026-04-17 22:41 48.35961 11.77866 1463 ft 13 kts 220°
2026-04-17 22:41 48.35867 11.77851 1466 ft 13 kts 174°
2026-04-17 22:41 48.35782 11.77813 1462 ft 14 kts 229°
2026-04-17 22:42 48.35713 11.77725 1464 ft 14 kts 183°
2026-04-17 22:42 48.35615 11.77735 1466 ft 14 kts 172°
2026-04-17 22:42 48.35516 11.77750 1470 ft 14 kts 174°
2026-04-17 22:42 48.35418 11.77767 1464 ft 14 kts 172°
2026-04-17 22:43 48.35341 11.77843 1470 ft 14 kts 107°
2026-04-17 22:43 48.35341 11.77940 1468 ft 8 kts 83°
2026-04-17 22:43 48.35349 11.78021 1465 ft 6 kts 81°
2026-04-17 22:43 48.35353 11.78065 1466 ft 2 kts 83°
2026-04-17 22:44 48.35351 11.78091 1466 ft 4 kts 100°
2026-04-17 22:44 48.35336 11.78134 1462 ft 2 kts 129°
2026-04-17 22:44 48.35299 11.78164 1462 ft 11 kts 160°
2026-04-17 22:44 48.35256 11.78179 1461 ft 9 kts 163°
2026-04-17 22:45 48.35235 11.78226 1465 ft 8 kts 97°
2026-04-17 22:45 48.35234 11.78294 1469 ft 1 kts 87°
2026-04-17 22:45 48.35236 11.78335 1468 ft 1 kts 84°
2026-04-17 22:45 48.35237 11.78337 1467 ft 0 kts 84°